Flag for U.S.A. Weather past 2 weeks in Wichita, Kansas, U.S.A.

Now
79 °F

Passing clouds.


Feels Like: 81 °F
Forecast: 73 / 92 °F
Wind: 7 mph from South

Location: Wichita Mid-Continent Airport

Current Time: Aug 2, 2015 at 10:46:15 PM

Latest Report: Aug 2, 2015 at 9:53 PM


Visibility: 10 mi

Pressure: 29.86 "Hg

Humidity: 69%

Dew point: 68 °F

Location of WichitaLocation

Historic Weather in Wichita — Graph

°F

Wichita temperature yesterday

Maximum temperature yesterday: 90 °F (at 3:53 PM)
Minimum temperature yesterday: 72 °F (at 4:53 AM)
Average temperature yesterday: 81 °F

Past Weeks' High & Low Weather Summary

 TemperatureHumidityPressure
High100 °F (Jul 24, 2:53 PM)94% (Aug 1, 5:53 AM)30.23 "Hg (Aug 1, 5:53 AM)
Low70 °F (Jul 22, 4:53 AM)29% (Jul 27, 5:53 PM)29.77 "Hg (Jul 26, 4:53 AM)
Average83 °F66%29.91 "Hg
* Reported Jul 18 8:53 PM — Aug 2 8:53 PM, Wichita, Weather by CustomWeather, © 2015

Note: Actual official high and low records may vary slightly from our data, if they occured in-between our weather recording intervals... More about our weather records

Advertising

Wichita weather history for previous 24 hours

 ConditionsComfort  
Time TempWeatherWind HumidityBarometerVisibility
8:53 PM
Sun, Aug 2
81 °FScattered clouds.7 mph67%29.83 "Hg10 mi
7:53 PM86 °FPassing clouds.8 mph57%29.82 "Hg10 mi
6:53 PM88 °FPassing clouds.12 mph54%29.82 "Hg10 mi
5:53 PM90 °FScattered clouds.9 mph48%29.83 "Hg10 mi
4:53 PM90 °FScattered clouds.12 mph50%29.84 "Hg10 mi
3:53 PM90 °FSunny.16 mph48%29.85 "Hg10 mi
2:53 PM90 °FScattered clouds.17 mph48%29.86 "Hg10 mi
1:53 PM89 °FScattered clouds.14 mph53%29.88 "Hg10 mi
12:53 PM87 °FScattered clouds.13 mph57%29.89 "Hg10 mi
11:53 AM86 °FScattered clouds.14 mph57%29.90 "Hg10 mi
10:53 AM83 °FScattered clouds.14 mph61%29.90 "Hg10 mi
9:53 AM81 °FScattered clouds.10 mph67%29.92 "Hg10 mi
8:53 AM78 °FScattered clouds.8 mph74%29.92 "Hg10 mi
7:53 AM74 °FScattered clouds.6 mph82%29.91 "Hg10 mi
6:53 AM71 °FPassing clouds.7 mph87%29.90 "Hg10 mi
5:53 AM71 °FPassing clouds.6 mph87%29.90 "Hg10 mi
4:53 AM72 °FPassing clouds.6 mph84%29.89 "Hg10 mi
3:53 AM73 °FPassing clouds.7 mph84%29.90 "Hg10 mi
2:53 AM73 °FPassing clouds.7 mph84%29.90 "Hg10 mi
1:53 AM75 °FPassing clouds.8 mph82%29.91 "Hg10 mi
12:53 AM76 °FPassing clouds.7 mph80%29.93 "Hg10 mi
11:53 PM
Sat, Aug 1
78 °FPassing clouds.7 mph76%29.93 "Hg10 mi
10:53 PM80 °FPassing clouds.9 mph74%29.94 "Hg10 mi
Weather by CustomWeather, © 2015

See weather overviewHow to use our weather pages